652  
ASUS42 KTAE 181415  
RWRTAE  
RWRTAE  
NORTH FLORIDA/SOUTH ALABAMA/SOUTHWEST GEORGIA WEATHER ROUNDUP  
NATIONAL WEATHER SERVICE TALLAHASSEE FLORIDA  
1000 AM EDT THU APR 18 2019  
 
NOTE: "FAIR" INDICATES FEW OR NO CLOUDS BELOW 12,000 FEET WITH NO  
SIGNIFICANT WEATHER AND/OR S TO VISIBILITY
.  
 
!FLZ017-115-028-034-025-181500   
..NORTH FLORIDA
 
 
 
CITY SKY/WX TMP DP RH WIND PRES REMARKS
 
TALL INTL ARPT PTSUNNY 76 65 68 S16 29.97R  
FSU LOVE BLDG N/A N/A N/A N/A MISG N/A  
APALACHICOLA FAIR 74 66 76 S16G22 29.95R  
PERRY FAIR 75 66 73 S9 30.00S  
CROSS CITY FAIR 74 63 70 S10 30.00S  
JACKSONVILLE FAIR 77 63 61 S15 30.01F  

 
 
!FLZ112-006-005-002-011-181500   
..FLORIDA PANHANDLE
 
 
 
CITY SKY/WX TMP DP RH WIND PRES REMARKS
 
MARIANNA FAIR 73 65 75 S15G23 29.94R  
BONIFAY NOT AVBL  
PANAMA CITY NW FAIR 74 66 76 SE18G28 29.93R  
TYNDALL AFB MOSUNNY 74 68 80 SE24G31 29.92S  
TYND DRONE APT NOT AVBL  
DE FUNIAK SPR FAIR 70 64 79 SE12 29.94R  
EGLIN AFB MOSUNNY 72 64 78 SE16 29.92R  
DESTIN FAIR 72 65 78 SE12G20 29.93R  
HURLBURT MOSUNNY 71 65 80 SE13G20 29.91R  
CRESTVIEW FAIR 71 62 73 S8 29.94R  
PENSACOLA FAIR 76 67 73 S15 29.91R  

 
 
!ALZ063-066-181500   
..SOUTH ALABAMA
 
 
 
CITY SKY/WX TMP DP RH WIND PRES REMARKS
 
DOTHAN FAIR 71 61 70 S15G22 29.99R  
OZARK CAIRNS FAIR 69 62 77 SE7 29.95R  
FT RUCKER HELI FAIR 67 62 84 CALM 29.95R  
RUCKER HELI 3 PTSUNNY 66 61 82 SE5 29.95R  
RUCKER HELI 2 FAIR 67 64 89 CALM 29.95R  
FLORALA APT FAIR 67 59 75 SE6 29.95R  
ANDALUSIA FAIR 69 58 67 CALM 29.94R  
TROY FAIR 66 59 78 SE6 29.96S  
EUFALA NOT AVBL  
MOBILE PTSUNNY 76 67 73 S17 29.90R  

 
 
!GAZ120>161-181500   
..SOUTHWEST AND SOUTH CENTRAL GEORGIA
 
 
 
CITY SKY/WX TMP DP RH WIND PRES REMARKS
 
THOMASVILLE FAIR 72 63 73 S9 29.99S  
BAINBRIDGE N/A 77 63 61 MISG 29.96S  
MOODY AFB FAIR 74 63 69 S10 29.99R  
VALDOSTA FAIR 75 62 64 S14G22 30.00R  
MOULTRIE FAIR 72 61 68 S10 29.99F  
BLAKELY FAIR 70 61 73 S10 29.98R  
ALBANY FAIR 74 61 63 S18 29.99S  
TIFTON FAIR 73 61 66 S12G17 29.99  
FITZGERALD FAIR 73 63 71 S6 30.03R  
CORDELE FAIR 70 60 69 S8 30.01R  
AMERICUS PTSUNNY 73 63 68 SW8 30.02R  
HOMERVILLE NOT AVBL  

 
 
!GMZ750-755-770-775-181500   
..COASTAL AND BUOY OBS
 
 
 
STATION/POSITION TIME TEMP WIND PRES VSBY WAVE
 
AIR SEA DIR/SP/G HT/PER  
(UTC) (F) (DEG/KT/KT) (MB) (MI) (FT/S)  
KEATON BEACH 1400 72 160/ 13/ 15 1015.6R  
CEDAR KEY 1400 72 160/ 14/ 15 1016.0R  
C TOWER NOT AVBL  
APALACHICOLA BUO NOT AVBL  
PANAMA CITY BUOY NOT AVBL  
MOBILE BUOY 1350 160/ 19/ 23 1011.6R 5/ 5  
ORANGE BCH AL BU 1340 71 150/ 12/ 14 1012.6  

 
 
 
CLICK HERE TO GO TO PREVIOUS BULLETINS.

The Nexlab FL Page
The Nexlab GA Page
The Nexlab AL Page Main Text Page